Wind_Speed
25 25 25 26 32 36 32 32 32 30 31 31 32 28 27 29 27 23 18 20 20 17 22 28 26 24 27 25 22 20 22 25 29 17 19 25 25 22 20 22 26 30 28 28 29 30 29 27 28
25 25 25 29 28 35 38 36 34 33 29 32 34 30 29 29 31 27 29 25 25 25 25 30 29 27 30 28 25 25 22 24 25 22 23 25 25 24 25 24 28 29 31 33 35 34 33 33 32
24 23 27 29 26 30 38 39 37 36 37 36 37 35 33 31 31 32 34 34 34 34 30 30 33 31 34 32 33 29 30 31 30 26 25 26 28 28 29 29 32 33 34 35 35 35 35 36 36
25 24 27 28 25 26 32 42 40 41 43 42 39 40 36 35 36 34 35 34 37 38 36 38 36 32 33 34 35 30 26 31 28 31 31 31 34 35 35 35 35 35 34 33 36 37 38 41 45
26 26 25 27 25 23 27 36 48 45 44 46 45 43 38 38 39 37 34 39 38 41 38 34 36 37 34 32 31 34 32 35 37 37 38 40 37 38 41 42 43 44 43 40 41 42 42 43 44
29 28 26 25 24 25 27 29 39 49 49 48 48 45 46 44 46 42 42 43 44 45 42 41 42 44 42 40 36 36 37 38 40 43 47 46 48 48 48 47 47 49 49 47 43 43 44 44 46
31 29 27 26 27 28 30 32 31 38 49 52 53 51 50 50 49 49 47 49 50 48 49 51 46 49 50 48 48 47 44 44 45 44 46 49 50 51 50 49 52 55 56 54 51 47 45 40 41
30 29 28 25 28 34 35 34 35 36 36 45 54 56 56 56 57 57 57 56 55 55 55 55 59 55 53 51 54 55 58 57 59 63 64 62 61 59 61 59 60 60 63 61 58 53 52 53 50
32 31 27 22 31 35 38 37 38 38 40 41 40 47 58 63 61 64 64 61 61 64 65 64 65 67 65 64 66 68 70 71 70 70 71 73 70 69 69 68 69 70 68 65 64 65 61 58 63
34 30 29 30 35 38 39 41 40 42 44 43 42 44 48 50 56 62 67 69 69 70 71 72 73 75 75 74 73 73 74 74 72 71 74 74 73 74 74 75 73 70 71 69 70 73 70 68 68
35 32 36 35 38 38 39 40 42 45 46 45 43 44 45 48 51 55 58 59 60 65 69 72 71 72 73 73 71 70 69 71 72 71 70 70 71 72 72 74 74 72 71 70 70 72 74 77 77
34 34 35 35 37 37 36 36 40 44 47 46 46 46 45 45 47 50 52 54 57 59 61 61 62 63 64 66 67 68 68 68 69 70 71 72 72 73 74 76 77 76 75 76 75 74 74 76 76
35 36 35 36 37 38 38 39 39 41 43 43 43 45 47 48 50 51 53 54 56 57 59 61 62 63 63 64 65 66 67 69 70 72 73 73 74 75 74 75 75 76 76 75 75 73 73 74 75
35 36 37 37 37 38 40 42 44 44 45 43 44 47 49 50 53 54 55 56 57 58 59 60 61 62 63 64 66 67 68 69 70 71 72 72 74 74 75 75 76 75 75 74 75 76 75 75 78
33 33 34 36 36 39 42 43 44 45 47 46 46 49 50 51 53 53 54 54 55 55 56 58 59 61 63 65 66 68 69 71 72 73 74 75 76 76 77 78 78 78 79 78 77 77 76 77 78
29 31 32 34 37 38 41 41 42 43 45 45 46 48 49 48 50 52 53 53 54 55 57 60 62 64 65 67 68 69 71 72 73 74 75 76 78 79 80 80 81 80 79 79 80 80 81 81 82
30 31 34 34 35 37 39 39 40 41 44 46 45 47 48 49 50 51 52 55 56 58 61 64 66 67 68 70 72 73 74 76 76 77 78 80 81 81 82 82 81 81 81 82 82 82 83 84 84
33 36 38 37 38 39 40 41 41 43 45 46 47 48 50 52 53 54 57 59 59 61 64 66 68 69 72 74 77 79 80 82 82 82 82 83 84 84 84 83 83 83 83 82 84 84 84 84 84
35 38 39 38 39 40 42 43 44 44 45 47 48 51 53 54 56 58 60 61 62 65 68 70 72 73 74 76 79 81 82 82 83 84 84 84 84 83 82 81 80 81 79 79 80 80 79 79 78
35 39 41 42 42 43 44 45 45 46 47 49 51 55 54 56 58 61 62 63 66 67 65 63 65 66 67 68 69 70 72 73 74 74 74 72 71 71 72 71 70 70 68 68 69 68 67 64 62
34 37 42 45 45 46 47 49 49 50 50 52 54 55 55 57 60 62 60 57 55 54 55 57 59 60 62 65 67 70 71 72 73 73 71 69 65 61 61 60 58 58 56 55 56 56 56 57 57
32 32 34 41 46 48 49 49 50 50 51 51 53 54 55 51 52 49 49 52 54 56 58 60 62 64 67 70 71 73 75 75 75 76 73 70 66 60 54 51 49 47 49 49 51 50 49 52 51
29 30 31 32 37 43 45 46 44 50 51 49 47 44 43 44 47 48 50 52 55 57 59 62 64 66 68 71 73 72 74 76 76 74 70 67 63 58 52 47 46 45 47 49 49 45 44 44 45
31 31 30 29 29 32 30 38 43 42 39 35 37 39 41 40 41 43 46 49 53 54 57 61 65 67 69 70 72 74 74 71 69 66 64 59 56 52 48 46 44 44 46 48 44 42 41 40 40
32 32 30 28 27 31 31 34 36 31 33 34 32 33 36 37 41 44 48 50 52 55 61 64 66 68 70 71 69 64 60 58 56 55 52 48 46 44 42 44 44 44 45 42 40 39 38 38 40
34 32 31 30 31 33 34 34 33 36 35 30 34 34 38 41 45 48 51 53 55 60 64 66 67 69 69 68 61 57 52 48 45 43 42 38 37 37 36 40 42 42 40 38 36 36 36 36 38
37 34 33 34 36 39 38 39 38 38 36 37 36 37 41 47 51 52 55 58 61 65 67 69 69 69 68 61 55 50 47 45 43 38 34 32 31 31 31 31 32 33 34 34 33 32 34 37 33
40 38 36 38 38 39 42 43 42 39 41 41 42 44 48 52 55 57 59 61 64 67 69 68 69 67 62 56 51 51 48 43 43 39 31 27 26 26 25 25 27 28 29 28 30 31 28 26 28
43 42 42 41 40 41 44 45 42 43 45 46 47 50 54 56 58 59 61 63 65 67 67 67 67 65 59 56 55 54 49 44 44 39 32 25 22 22 22 22 24 22 23 25 23 21 23 27 30
48 46 45 44 43 45 44 48 44 47 49 49 52 55 56 59 59 60 62 63 65 68 66 67 66 60 56 57 59 56 45 39 38 35 26 22 21 19 18 18 17 19 18 18 18 22 27 31 36
Wind_Direction
258 252 242 237 232 229 226 229 234 231 233 232 229 230 237 238 236 231 228 223 237 249 273 274 279 284 284 284 279 287 291 296 306 287 291 291 292 288 293 297 301 303 294 295 292 291 283 285 278
255 252 247 240 238 233 230 229 233 235 228 240 235 237 235 238 242 245 247 236 230 233 247 252 270 275 278 275 277 268 269 277 290 285 301 293 279 284 288 295 295 294 291 291 292 289 282 279 279
252 246 248 243 241 238 231 231 232 234 229 232 237 239 234 229 237 240 243 245 241 245 242 251 256 260 269 272 274 271 264 268 270 277 273 275 280 287 286 290 299 303 292 287 280 281 279 273 270
251 249 250 247 246 241 237 231 232 232 234 228 234 239 232 230 232 242 238 246 249 251 258 253 251 262 265 267 268 268 262 259 263 266 268 275 276 278 280 280 285 288 289 286 280 277 281 287 285
249 251 251 253 255 243 232 233 232 233 236 238 235 238 236 223 225 232 248 246 250 252 256 256 256 258 262 263 263 255 251 255 257 254 258 268 273 278 280 281 283 287 287 284 287 279 274 276 273
243 246 249 254 254 249 243 238 236 237 236 241 241 240 241 236 226 231 237 243 253 256 257 261 263 266 270 268 260 261 259 259 261 261 262 269 277 277 278 278 278 282 286 286 280 277 276 273 273
245 243 245 251 254 253 251 250 245 241 241 244 245 246 240 242 241 244 244 240 246 247 250 263 264 265 264 266 268 269 265 270 269 271 272 274 276 280 279 280 286 287 285 281 279 274 273 272 274
250 248 241 249 255 255 254 254 255 254 247 245 247 249 249 248 247 250 253 247 247 250 256 258 268 268 265 266 268 268 271 273 273 278 276 275 278 275 279 280 282 284 285 281 274 264 268 268 271
255 254 251 240 249 253 257 259 260 264 263 259 252 251 252 252 253 253 255 255 255 255 258 264 265 271 274 273 272 275 276 278 277 277 277 278 278 277 275 277 279 282 281 276 271 272 264 265 267
257 258 258 256 255 254 259 261 264 265 266 265 262 260 257 256 258 258 259 259 260 262 263 265 268 271 274 275 275 275 276 277 278 277 278 278 279 280 279 279 279 278 276 275 273 270 269 265 269
256 257 258 259 259 260 259 260 261 262 264 265 266 263 261 260 260 261 262 265 264 263 265 267 270 272 273 274 276 278 278 278 277 277 276 277 277 277 277 278 278 277 277 275 275 272 269 270 271
260 258 258 259 259 261 261 262 260 260 260 261 264 265 266 266 265 265 266 266 267 268 269 271 272 272 273 276 277 277 278 278 277 277 277 277 277 277 277 278 278 277 276 275 274 273 271 272 270
260 259 258 257 259 260 261 261 260 258 258 260 262 263 265 266 266 267 268 270 272 273 275 276 277 277 276 276 275 276 277 277 277 276 276 276 275 276 276 275 274 275 276 276 275 274 274 274 274
259 259 261 262 262 261 261 263 264 264 264 263 265 265 267 268 269 270 269 269 271 273 275 276 277 279 280 280 280 280 279 279 279 279 278 278 278 278 279 278 278 276 275 274 273 273 273 273 273
264 263 262 262 262 264 265 265 267 268 269 269 269 270 270 271 271 273 274 275 276 277 278 279 278 277 278 279 279 279 279 278 277 277 277 277 276 275 276 276 275 276 277 277 276 275 275 274 272
266 264 262 260 260 260 262 264 266 269 271 269 269 270 270 272 273 275 277 277 278 279 280 280 280 280 280 280 280 280 279 278 278 278 278 278 277 276 276 276 276 276 277 277 277 276 275 275 274
267 266 264 263 263 263 264 265 266 267 269 270 271 272 273 273 274 276 278 279 282 283 282 282 282 282 281 280 279 279 279 279 278 277 277 277 277 277 277 277 277 277 276 276 275 275 274 274 273
265 264 265 266 268 268 267 267 269 270 272 275 277 277 278 278 279 282 284 284 285 286 285 286 286 285 284 284 283 282 281 280 280 279 279 279 280 280 280 280 280 279 279 278 277 277 275 274 274
270 266 267 268 270 270 272 272 272 274 276 277 279 279 280 285 286 286 288 288 289 290 289 288 288 287 286 286 285 285 286 286 285 284 282 282 282 281 281 282 281 280 280 279 278 278 276 275 274
278 271 269 269 269 271 272 273 274 275 276 278 281 283 284 287 289 290 292 294 293 292 294 293 290 289 291 292 292 291 290 288 287 285 283 281 281 281 282 282 281 281 281 280 278 277 275 274 272
284 276 270 268 269 270 272 273 275 277 280 281 282 285 289 291 292 294 295 295 296 297 296 297 298 299 300 300 299 297 295 293 292 290 288 287 283 279 279 281 281 282 283 283 283 283 280 274 273
288 284 280 273 268 269 271 276 279 280 281 282 285 290 292 293 295 299 300 301 301 300 300 300 300 301 299 298 296 294 294 293 291 289 288 287 286 283 279 278 280 280 282 289 292 289 281 277 277
291 287 287 287 280 275 274 275 275 275 277 285 288 290 293 298 300 303 304 302 301 302 302 302 301 299 297 296 295 294 292 291 288 286 284 283 282 280 273 273 275 280 286 294 298 294 289 284 280
291 291 291 297 291 282 278 273 274 281 287 289 292 298 299 303 310 312 310 309 307 305 306 304 302 300 300 299 298 298 297 293 289 287 283 281 279 277 271 268 274 281 289 296 297 293 291 288 286
289 291 292 293 283 282 279 280 285 284 288 290 292 294 304 308 311 315 316 314 310 309 308 307 306 305 304 303 303 304 302 297 294 291 285 279 275 274 268 266 272 281 288 293 290 288 286 284 285
280 289 291 282 282 283 284 285 285 288 290 287 290 301 305 308 310 312 314 315 316 316 314 313 310 309 309 309 308 306 304 301 297 294 287 281 276 273 270 270 273 279 288 291 287 285 286 288 289
277 283 286 280 279 279 280 281 283 287 282 285 292 299 302 306 310 313 313 315 317 319 318 316 316 315 312 309 308 306 303 299 296 292 288 280 275 271 272 275 279 283 289 286 288 288 288 290 291
274 279 282 282 279 277 278 280 284 279 277 281 288 295 299 303 308 310 313 317 319 322 321 319 317 316 312 309 307 304 298 291 287 285 281 274 270 270 274 275 276 276 279 283 284 285 286 287 291
277 278 279 282 275 276 279 281 282 279 278 283 289 294 299 304 308 310 314 319 321 321 322 320 320 317 315 314 311 305 297 280 270 272 274 273 272 271 265 261 263 271 276 278 276 275 283 291 295
275 277 277 276 276 276 276 279 282 279 284 288 291 295 301 306 310 313 317 319 321 321 322 322 321 319 318 319 318 314 303 283 261 259 261 259 257 252 251 258 270 275 270 267 271 281 288 292 297
Height
10946 10948 10952 10952 10955 10957 10959 10958 10957 10959 10960 10961 10961 10962 10962 10962 10964 10965 10965 10966 10967 10968 10966 10964 10965 10965 10966 10966 10965 10966 10967 10966 10967 10966 10967 10966 10966 10966 10965 10964 10964 10964 10962 10961 10960 10958 10958 10957 10956
10942 10944 10947 10947 10950 10953 10954 10953 10954 10956 10956 10955 10956 10956 10957 10959 10961 10961 10961 10961 10960 10962 10964 10961 10961 10961 10960 10961 10960 10960 10961 10961 10960 10960 10961 10960 10960 10961 10961 10960 10959 10958 10957 10956 10955 10955 10954 10952 10952
10937 10939 10940 10943 10945 10948 10949 10949 10950 10951 10949 10949 10949 10951 10952 10954 10955 10955 10954 10954 10955 10955 10956 10956 10956 10956 10955 10955 10955 10956 10955 10954 10955 10955 10953 10954 10955 10954 10954 10954 10953 10952 10951 10950 10949 10949 10947 10946 10945
10931 10935 10935 10938 10941 10943 10944 10945 10944 10942 10941 10942 10944 10946 10948 10949 10949 10948 10948 10949 10949 10949 10949 10950 10950 10950 10950 10949 10948 10949 10949 10948 10947 10947 10947 10946 10946 10946 10946 10945 10945 10945 10944 10943 10943 10943 10941 10940 10939
10927 10930 10931 10933 10936 10938 10938 10937 10936 10934 10936 10935 10939 10942 10945 10944 10943 10944 10944 10943 10943 10943 10944 10943 10944 10944 10944 10944 10943 10941 10941 10941 10940 10938 10938 10938 10937 10937 10937 10938 10937 10937 10937 10936 10935 10934 10933 10932 10930
10922 10925 10927 10928 10930 10931 10931 10929 10929 10929 10929 10930 10933 10937 10938 10938 10937 10937 10937 10937 10936 10936 10938 10937 10937 10938 10938 10937 10936 10935 10934 10933 10933 10932 10931 10931 10930 10929 10928 10927 10928 10928 10928 10927 10926 10925 10924 10922 10922
10915 10920 10923 10924 10924 10924 10921 10922 10924 10924 10926 10925 10926 10929 10931 10931 10932 10930 10929 10929 10928 10929 10929 10928 10929 10929 10929 10929 10928 10928 10926 10925 10924 10924 10924 10923 10921 10919 10919 10918 10917 10916 10917 10916 10915 10915 10914 10913 10911
10909 10913 10918 10922 10920 10916 10913 10915 10916 10917 10920 10920 10921 10921 10922 10923 10924 10924 10921 10921 10921 10921 10920 10920 10918 10919 10920 10919 10919 10917 10915 10916 10916 10915 10913 10913 10910 10909 10908 10908 10905 10904 10904 10904 10905 10902 10902 10901 10901
10904 10906 10911 10917 10914 10909 10908 10909 10909 10911 10911 10912 10916 10914 10914 10913 10914 10913 10913 10913 10914 10912 10911 10910 10909 10909 10909 10909 10908 10908 10905 10903 10902 10901 10900 10897 10897 10896 10896 10893 10893 10891 10890 10890 10890 10890 10888 10887 10887
10899 10902 10904 10905 10905 10904 10903 10902 10904 10903 10901 10905 10907 10907 10905 10906 10904 10903 10902 10903 10903 10902 10901 10900 10900 10898 10897 10895 10895 10894 10892 10889 10887 10886 10884 10883 10880 10879 10878 10878 10877 10875 10875 10874 10874 10874 10874 10872 10873
10894 10897 10896 10897 10895 10895 10896 10896 10896 10894 10894 10896 10898 10896 10896 10896 10895 10894 10893 10891 10890 10890 10890 10889 10889 10888 10886 10884 10882 10880 10876 10875 10874 10871 10869 10867 10866 10863 10862 10861 10860 10859 10858 10858 10858 10857 10856 10854 10853
10886 10888 10888 10887 10887 10886 10887 10887 10887 10886 10885 10888 10889 10886 10886 10886 10884 10883 10882 10881 10880 10879 10879 10878 10877 10876 10873 10870 10868 10866 10864 10861 10859 10857 10855 10853 10850 10849 10846 10843 10842 10842 10842 10841 10840 10840 10838 10836 10835
10878 10878 10880 10879 10879 10878 10878 10877 10877 10876 10877 10880 10880 10878 10877 10877 10874 10874 10873 10871 10870 10869 10868 10866 10864 10862 10860 10858 10855 10853 10850 10848 10845 10842 10839 10837 10834 10832 10830 10827 10826 10824 10823 10822 10820 10820 10819 10816 10814
10868 10870 10871 10871 10871 10871 10870 10868 10868 10868 10869 10871 10870 10869 10867 10867 10865 10863 10863 10862 10861 10859 10857 10855 10852 10849 10847 10843 10840 10838 10835 10831 10828 10825 10822 10819 10815 10814 10810 10808 10805 10804 10804 10805 10803 10801 10800 10798 10795
10862 10864 10863 10862 10862 10861 10861 10861 10859 10859 10858 10861 10859 10857 10857 10855 10853 10851 10851 10850 10849 10848 10846 10843 10840 10836 10834 10831 10827 10823 10818 10813 10809 10806 10804 10801 10798 10795 10792 10789 10787 10786 10783 10782 10782 10781 10780 10777 10775
10855 10855 10855 10854 10854 10853 10851 10852 10851 10850 10849 10849 10849 10848 10846 10845 10843 10841 10840 10839 10838 10836 10833 10829 10826 10823 10819 10815 10810 10805 10800 10795 10790 10787 10784 10781 10777 10775 10772 10770 10767 10766 10764 10763 10761 10760 10758 10757 10754
10847 10847 10845 10845 10845 10845 10844 10845 10843 10842 10839 10839 10840 10837 10837 10834 10832 10832 10831 10828 10828 10824 10820 10815 10811 10807 10802 10796 10790 10784 10780 10776 10773 10769 10765 10761 10757 10755 10753 10750 10748 10746 10744 10742 10739 10738 10735 10732 10730
10839 10838 10837 10838 10836 10835 10835 10835 10835 10833 10831 10829 10828 10827 10825 10822 10822 10822 10819 10817 10816 10811 10805 10800 10794 10788 10781 10776 10770 10765 10760 10755 10752 10749 10745 10740 10736 10732 10728 10728 10725 10722 10722 10720 10716 10714 10711 10710 10708
10831 10830 10828 10829 10827 10827 10825 10825 10825 10823 10822 10819 10817 10813 10813 10813 10811 10808 10806 10804 10801 10794 10788 10782 10776 10770 10763 10756 10751 10746 10740 10735 10730 10726 10722 10719 10716 10712 10708 10705 10703 10700 10699 10696 10693 10690 10687 10686 10685
10822 10821 10820 10819 10818 10816 10815 10814 10814 10813 10812 10810 10807 10802 10803 10801 10799 10793 10792 10790 10784 10776 10771 10763 10756 10751 10747 10740 10733 10726 10719 10715 10710 10705 10701 10697 10694 10691 10689 10685 10683 10678 10678 10675 10671 10669 10666 10666 10665
10814 10812 10811 10810 10809 10807 10806 10803 10803 10802 10802 10800 10796 10794 10793 10791 10786 10783 10781 10776 10769 10763 10757 10749 10742 10738 10731 10724 10717 10709 10703 10696 10688 10683 10678 10675 10674 10674 10671 10669 10665 10661 10658 10656 10652 10649 10646 10647 10648
10807 10804 10802 10800 10799 10798 10796 10795 10792 10791 10789 10789 10786 10785 10782 10778 10774 10771 10768 10763 10756 10750 10743 10737 10731 10725 10717 10709 10701 10692 10684 10676 10670 10664 10659 10657 10653 10652 10652 10651 10650 10647 10644 10641 10639 10635 10632 10630 10631
10800 10797 10794 10792 10789 10787 10787 10786 10785 10780 10781 10782 10777 10776 10772 10768 10764 10761 10757 10752 10744 10738 10731 10725 10719 10711 10702 10693 10683 10674 10665 10657 10648 10642 10639 10637 10635 10634 10635 10636 10636 10634 10632 10629 10625 10620 10617 10615 10615
10792 10790 10787 10786 10782 10778 10779 10774 10771 10773 10773 10773 10768 10766 10761 10758 10754 10750 10746 10739 10733 10727 10721 10714 10704 10694 10684 10674 10665 10655 10644 10634 10626 10621 10619 10618 10617 10617 10618 10621 10623 10622 10620 10616 10612 10609 10606 10603 10601
10784 10782 10781 10778 10775 10771 10770 10767 10765 10768 10767 10766 10764 10758 10753 10749 10743 10740 10734 10728 10723 10716 10708 10698 10687 10676 10665 10655 10645 10635 10625 10616 10608 10603 10601 10602 10602 10603 10605 10607 10609 10610 10608 10605 10602 10600 10597 10593 10591
10777 10776 10774 10772 10769 10765 10762 10760 10760 10759 10760 10757 10755 10752 10745 10740 10735 10730 10725 10719 10712 10703 10693 10682 10670 10658 10646 10634 10626 10618 10610 10603 10596 10591 10588 10589 10590 10591 10593 10595 10597 10598 10597 10595 10593 10589 10586 10584 10581
10769 10768 10767 10763 10761 10757 10756 10753 10753 10752 10750 10748 10746 10743 10738 10732 10726 10721 10714 10707 10699 10689 10677 10665 10653 10641 10629 10619 10612 10605 10599 10592 10586 10582 10579 10579 10580 10582 10584 10586 10587 10587 10586 10584 10582 10580 10577 10574 10571
10760 10760 10759 10757 10754 10749 10747 10744 10745 10745 10742 10740 10737 10733 10728 10723 10717 10710 10703 10695 10686 10675 10663 10651 10639 10628 10615 10607 10599 10592 10587 10581 10575 10572 10571 10571 10572 10574 10576 10578 10579 10579 10578 10577 10574 10571 10569 10567 10564
10750 10751 10750 10748 10745 10742 10737 10734 10736 10735 10732 10731 10727 10722 10717 10712 10706 10699 10691 10682 10673 10662 10651 10639 10628 10614 10602 10594 10584 10574 10567 10563 10559 10560 10562 10564 10566 10568 10570 10571 10572 10572 10570 10568 10566 10564 10562 10560 10557
10739 10740 10740 10739 10737 10732 10730 10724 10728 10725 10722 10719 10716 10711 10706 10701 10694 10686 10678 10671 10662 10652 10640 10628 10616 10604 10593 10582 10569 10555 10545 10540 10542 10548 10554 10557 10559 10562 10563 10564 10564 10563 10562 10561 10560 10558 10556 10552 10546